�������l�o���
Date,Time,MP-1(��Sv/h),MP-2(��Sv/h),MP-3(��Sv/h),MP-4(��Sv/h),MP-5(��Sv/h),MP-6(��Sv/h),MP-7(��Sv/h),MP-8(��Sv/h),����,����(m/s),���J
2023/06/06,00:00,0.556,0.817,0.496,0.996,0.724,0.327,0.575,0.540,�쐼,3.7,��
2023/06/06,00:10,0.554,0.817,0.496,0.997,0.723,0.327,0.576,0.539,�쐼,4.1,��
2023/06/06,00:20,0.554,0.820,0.497,0.998,0.724,0.327,0.577,0.540,�쐼,3.7,��
2023/06/06,00:30,0.555,0.817,0.497,1.000,0.724,0.326,0.576,0.541,��,2.9,��
2023/06/06,00:40,0.555,0.819,0.496,1.001,0.724,0.328,0.575,0.540,��,2.3,��
2023/06/06,00:50,0.556,0.821,0.497,1.000,0.722,0.328,0.577,0.541,��,2.6,��
2023/06/06,01:00,0.555,0.818,0.497,1.001,0.725,0.326,0.576,0.541,���k��,3.0,��
2023/06/06,01:10,0.555,0.818,0.496,1.001,0.724,0.327,0.575,0.541,���k��,3.2,��
2023/06/06,01:20,0.556,0.819,0.497,1.000,0.724,0.328,0.575,0.541,�k��,2.9,��
2023/06/06,01:30,0.557,0.818,0.497,0.998,0.724,0.325,0.577,0.540,�k��,3.2,��
2023/06/06,01:40,0.554,0.819,0.499,0.999,0.724,0.326,0.577,0.540,�k��,3.4,��
2023/06/06,01:50,0.556,0.820,0.498,1.000,0.723,0.326,0.577,0.539,�k��,2.6,��
2023/06/06,02:00,0.555,0.819,0.496,0.999,0.724,0.327,0.576,0.541,�k��,2.2,��
2023/06/06,02:10,0.554,0.818,0.497,1.000,0.723,0.327,0.578,0.541,�k��,2.5,��
2023/06/06,02:20,0.557,0.818,0.498,1.001,0.724,0.326,0.576,0.541,���k��,1.7,��
2023/06/06,02:30,0.555,0.819,0.498,0.998,0.722,0.327,0.577,0.541,��,1.4,��
2023/06/06,02:40,0.556,0.818,0.497,0.998,0.725,0.327,0.577,0.541,���k��,0.6,��
2023/06/06,02:50,0.555,0.818,0.496,0.999,0.722,0.328,0.576,0.540,��,1.4,��
2023/06/06,03:00,0.556,0.817,0.496,1.001,0.723,0.327,0.576,0.542,��,2.3,��
2023/06/06,03:10,0.557,0.819,0.497,1.003,0.724,0.328,0.576,0.540,��쐼,2.3,��
2023/06/06,03:20,0.555,0.818,0.497,1.000,0.723,0.327,0.578,0.541,��쐼,3.2,��
2023/06/06,03:30,0.557,0.820,0.497,1.001,0.724,0.327,0.578,0.540,��쐼,3.7,��
2023/06/06,03:40,0.557,0.818,0.496,1.001,0.723,0.326,0.577,0.543,��쐼,3.5,��
2023/06/06,03:50,0.558,0.818,0.499,0.999,0.723,0.326,0.577,0.540,��쓌,2.8,��
2023/06/06,04:00,0.556,0.819,0.498,1.000,0.722,0.327,0.578,0.540,��쓌,3.3,��
2023/06/06,04:10,0.557,0.818,0.497,1.000,0.724,0.327,0.576,0.541,��,2.9,��
2023/06/06,04:20,0.556,0.820,0.497,1.001,0.724,0.326,0.577,0.541,��,2.9,��
2023/06/06,04:30,0.555,0.818,0.496,0.999,0.725,0.326,0.577,0.540,��,3.7,��
2023/06/06,04:40,0.556,0.818,0.497,0.999,0.724,0.326,0.578,0.541,��,3.4,��
2023/06/06,04:50,0.557,0.818,0.497,1.001,0.722,0.328,0.578,0.541,��,3.7,��
2023/06/06,05:00,0.556,0.818,0.497,0.998,0.723,0.327,0.577,0.542,��,4.4,��
2023/06/06,05:10,0.554,0.820,0.497,1.001,0.726,0.328,0.578,0.541,��,4.7,��
2023/06/06,05:20,0.557,0.818,0.498,1.000,0.724,0.327,0.577,0.543,��,4.3,��
2023/06/06,05:30,0.557,0.819,0.496,1.001,0.724,0.328,0.578,0.542,��,4.1,��
2023/06/06,05:40,0.556,0.818,0.497,0.999,0.722,0.328,0.578,0.541,��,4.6,��
2023/06/06,05:50,0.557,0.819,0.497,1.000,0.723,0.327,0.576,0.541,��,4.4,��
2023/06/06,06:00,0.556,0.819,0.496,0.999,0.723,0.327,0.577,0.541,��,4.0,��
2023/06/06,06:10,0.557,0.819,0.497,1.000,0.724,0.326,0.576,0.541,��,4.3,��
2023/06/06,06:20,0.555,0.818,0.497,1.001,0.723,0.327,0.577,0.540,��,4.5,��
2023/06/06,06:30,0.555,0.820,0.498,1.001,0.724,0.326,0.578,0.540,��,4.3,��
2023/06/06,06:40,0.556,0.819,0.500,1.000,0.725,0.326,0.579,0.542,��쐼,2.8,��
2023/06/06,06:50,0.557,0.820,0.495,1.001,0.723,0.327,0.578,0.543,��,2.9,��
2023/06/06,07:00,0.557,0.821,0.497,1.002,0.723,0.327,0.579,0.541,��쓌,2.6,��
2023/06/06,07:10,0.558,0.819,0.499,1.002,0.724,0.326,0.579,0.542,��쓌,2.6,��
2023/06/06,07:20,0.557,0.817,0.496,0.998,0.721,0.326,0.578,0.541,��쓌,3.7,��
2023/06/06,07:30,0.556,0.817,0.497,1.003,0.722,0.325,0.577,0.541,��쓌,3.5,��
2023/06/06,07:40,0.556,0.820,0.497,1.000,0.721,0.327,0.577,0.540,��쓌,3.5,��
2023/06/06,07:50,0.555,0.819,0.497,1.001,0.725,0.327,0.577,0.539,��쓌,3.6,��
2023/06/06,08:00,0.555,0.817,0.496,1.000,0.724,0.326,0.575,0.540,��쓌,4.3,��
2023/06/06,08:10,0.555,0.816,0.496,1.002,0.723,0.326,0.576,0.539,��쓌,3.4,��
2023/06/06,08:20,0.554,0.814,0.496,1.001,0.725,0.325,0.577,0.538,��쓌,3.9,��
2023/06/06,08:30,0.554,0.817,0.498,1.000,0.724,0.326,0.577,0.540,��,4.4,��
2023/06/06,08:40,0.554,0.817,0.499,1.000,0.724,0.324,0.576,0.538,��쓌,5.5,��
2023/06/06,08:50,0.555,0.818,0.496,1.001,0.724,0.326,0.575,0.540,��쓌,5.8,��
2023/06/06,09:00,0.555,0.817,0.496,0.999,0.724,0.324,0.576,0.538,��쓌,7.0,��
2023/06/06,09:10,0.556,0.818,0.497,1.002,0.725,0.325,0.576,0.540,��쓌,9.0,��
2023/06/06,09:20,0.555,0.816,0.497,1.002,0.724,0.325,0.575,0.540,��쓌,5.8,��
2023/06/06,09:30,0.555,0.819,0.497,1.003,0.726,0.326,0.577,-,��쓌,6.6,��
2023/06/06,09:40,0.553,0.818,0.497,1.002,0.726,0.325,0.576,-,��쓌,7.8,��
2023/06/06,09:50,0.556,0.815,0.498,1.003,0.725,0.325,0.577,-,��쓌,7.6,��
2023/06/06,10:00,0.555,0.818,0.497,1.000,0.723,0.326,0.576,-,��쓌,7.5,��
2023/06/06,10:10,0.553,0.819,0.495,1.000,0.724,0.325,0.576,-,��쓌,9.7,��
2023/06/06,10:20,0.554,0.818,0.495,1.001,0.724,0.327,0.577,-,��쓌,8.3,��
2023/06/06,10:30,0.555,0.818,0.496,1.002,0.722,0.325,0.577,-,��쓌,9.0,��
2023/06/06,10:40,0.554,0.819,0.494,1.000,0.723,0.327,0.575,-,��쓌,9.3,��
2023/06/06,10:50,0.554,0.817,0.495,0.999,0.724,0.326,0.577,-,��쓌,9.4,��
2023/06/06,11:00,0.554,0.817,0.497,1.001,0.725,0.326,0.577,-,��,9.0,��
2023/06/06,11:10,0.553,0.819,0.496,0.998,0.725,0.327,0.578,-,��쓌,9.2,��
2023/06/06,11:20,0.554,0.821,0.496,0.997,0.725,0.326,0.577,-,��쓌,12.7,��
2023/06/06,11:30,0.554,0.820,0.496,0.999,0.724,0.327,0.573,-,��쓌,13.3,��
2023/06/06,11:40,0.554,0.818,0.496,0.998,0.724,0.327,0.576,-,��쓌,13.6,��
2023/06/06,11:50,0.556,0.821,0.496,0.998,0.727,0.324,0.575,-,��쓌,13.6,��
2023/06/06,12:00,0.555,0.819,0.496,0.997,0.724,0.327,0.576,-,��쓌,12.7,��
2023/06/06,12:10,0.555,0.820,0.496,1.000,0.725,0.326,0.576,-,��쓌,12.0,��
2023/06/06,12:20,0.553,0.821,0.496,0.999,0.725,0.327,0.575,-,��쓌,13.6,��
2023/06/06,12:30,0.554,0.820,0.497,0.999,0.725,0.328,0.575,0.539,��쓌,13.6,��
2023/06/06,12:40,0.554,0.821,0.496,0.999,0.726,0.327,0.575,0.541,��쓌,12.5,��
2023/06/06,12:50,0.556,0.821,0.498,1.000,0.727,0.326,0.574,0.539,��쓌,13.3,��
2023/06/06,13:00,0.555,0.819,0.494,0.999,0.727,0.328,0.575,0.540,��쓌,13.5,��
2023/06/06,13:10,0.554,0.820,0.497,1.003,0.724,0.327,0.574,0.540,��쓌,13.3,��
2023/06/06,13:20,0.554,0.822,0.496,1.000,0.726,0.326,0.574,0.541,��쓌,13.5,��
2023/06/06,13:30,0.555,0.822,0.497,1.000,0.728,0.327,0.573,0.541,��쓌,14.7,��
2023/06/06,13:40,0.553,0.820,0.499,1.000,0.725,0.327,0.575,0.540,��쓌,12.7,��
2023/06/06,13:50,0.553,0.819,0.497,1.002,0.726,0.327,0.574,0.539,��쓌,13.1,��
2023/06/06,14:00,0.555,0.819,0.497,0.999,0.727,0.326,0.574,0.541,��쓌,13.3,��
2023/06/06,14:10,0.554,0.821,0.496,1.001,0.726,0.325,0.574,0.540,��쓌,12.8,��
2023/06/06,14:20,0.555,0.820,0.497,1.000,0.726,0.327,0.574,0.540,��쓌,12.7,��
2023/06/06,14:30,0.556,0.821,0.498,1.002,0.726,0.326,0.574,0.541,��쓌,10.2,��
2023/06/06,14:40,0.554,0.821,0.497,0.999,0.726,0.326,0.575,0.538,��쓌,10.5,��
2023/06/06,14:50,0.554,0.821,0.496,1.000,0.726,0.327,0.574,0.541,��쓌,11.3,��
2023/06/06,15:00,0.554,0.821,0.497,1.000,0.729,0.325,0.573,0.540,��쓌,12.2,��
2023/06/06,15:10,0.555,0.820,0.497,1.000,0.725,0.325,0.577,0.539,��쓌,11.0,��
2023/06/06,15:20,0.555,0.822,0.497,0.999,0.736,0.327,0.574,0.539,��쓌,10.2,��
2023/06/06,15:30,0.553,0.821,0.496,1.000,0.725,0.327,0.574,0.541,��쓌,8.5,��
2023/06/06,15:40,0.556,0.821,0.496,0.999,0.727,0.327,0.575,0.540,��,8.7,��
2023/06/06,15:50,0.555,0.818,0.496,1.001,0.727,0.326,0.573,0.540,��쓌,9.5,��
2023/06/06,16:00,0.553,0.819,0.497,1.001,0.727,0.327,0.574,0.539,��쓌,9.9,��
2023/06/06,16:10,0.554,0.820,0.495,1.000,0.726,0.326,0.573,0.540,��쓌,10.6,��
2023/06/06,16:20,0.553,0.820,0.496,1.001,0.727,0.327,0.573,0.539,��,9.1,��
2023/06/06,16:30,0.554,0.822,0.496,1.002,0.726,0.327,0.575,0.540,��,8.3,��
2023/06/06,16:40,0.556,0.821,0.497,1.000,0.726,0.327,0.574,0.541,��,9.3,��
2023/06/06,16:50,0.554,0.818,0.497,1.001,0.725,0.327,0.574,0.540,��,9.6,��
2023/06/06,17:00,0.554,0.820,0.496,1.001,0.730,0.327,0.574,0.542,��,8.6,��
2023/06/06,17:10,0.555,0.821,0.497,1.002,0.727,0.326,0.574,0.541,��,8.6,��
2023/06/06,17:20,0.555,0.822,0.496,1.004,0.727,0.326,0.575,0.542,��,9.8,��
2023/06/06,17:30,0.553,0.820,0.496,1.003,0.727,0.327,0.576,0.541,��,8.8,��
2023/06/06,17:40,0.554,0.822,0.498,1.003,0.727,0.327,0.577,0.543,��,9.4,��
2023/06/06,17:50,0.553,0.820,0.497,1.005,0.725,0.328,0.577,0.542,��,8.3,��
2023/06/06,18:00,0.555,0.821,0.497,1.005,0.726,0.326,0.575,0.541,��,7.8,��
2023/06/06,18:10,0.555,0.820,0.499,1.005,0.727,0.327,0.577,0.542,��,8.3,��
2023/06/06,18:20,0.555,0.823,0.499,1.005,0.726,0.328,0.577,0.542,��,8.6,��
2023/06/06,18:30,0.555,0.822,0.497,1.004,0.728,0.326,0.576,0.543,��,8.6,��
2023/06/06,18:40,0.555,0.821,0.499,1.003,0.726,0.326,0.577,0.543,��,10.5,��
2023/06/06,18:50,0.554,0.822,0.499,1.002,0.728,0.328,0.577,0.542,��,10.0,��
2023/06/06,19:00,0.555,0.821,0.499,1.002,0.728,0.328,0.577,0.541,��,9.7,��
2023/06/06,19:10,0.553,0.822,0.499,1.003,0.726,0.328,0.577,0.544,��,9.0,��
2023/06/06,19:20,0.555,0.822,0.500,1.004,0.728,0.328,0.577,0.542,��,9.9,��
2023/06/06,19:30,0.556,0.823,0.500,1.003,0.728,0.328,0.577,0.541,��,9.8,��
2023/06/06,19:40,0.555,0.822,0.500,1.004,0.727,0.328,0.577,0.545,��,9.0,��
2023/06/06,19:50,0.554,0.823,0.499,1.004,0.727,0.328,0.578,0.542,��,8.7,��
2023/06/06,20:00,0.556,0.822,0.500,1.004,0.729,0.327,0.578,0.541,��,8.1,��
2023/06/06,20:10,0.557,0.825,0.500,1.004,0.729,0.328,0.576,0.544,��,6.6,��
2023/06/06,20:20,0.556,0.824,0.500,1.004,0.729,0.328,0.578,0.543,��,6.7,��
2023/06/06,20:30,0.555,0.824,0.499,1.005,0.731,0.326,0.577,0.542,��,7.1,��
2023/06/06,20:40,0.554,0.824,0.499,1.006,0.728,0.327,0.578,0.543,��,7.6,��
2023/06/06,20:50,0.554,0.822,0.500,1.007,0.730,0.327,0.577,0.542,��,7.8,��
2023/06/06,21:00,0.555,0.824,0.499,1.003,0.731,0.327,0.577,0.542,��,8.3,��
2023/06/06,21:10,0.556,0.824,0.499,1.004,0.730,0.326,0.576,0.544,��,8.8,��
2023/06/06,21:20,0.554,0.823,0.499,1.004,0.729,0.326,0.577,0.542,��,8.2,��
2023/06/06,21:30,0.553,0.824,0.498,1.004,0.729,0.328,0.577,0.543,��,7.3,��
2023/06/06,21:40,0.554,0.822,0.498,1.006,0.728,0.327,0.575,0.543,��,6.8,��
2023/06/06,21:50,0.555,0.822,0.497,1.005,0.727,0.326,0.577,0.543,��,7.8,��
2023/06/06,22:00,0.552,0.822,0.498,1.003,0.727,0.326,0.576,0.540,��,9.2,�L
2023/06/06,22:10,0.555,0.823,0.498,1.004,0.727,0.326,0.576,0.543,��,11.0,�L
2023/06/06,22:20,0.553,0.822,0.498,1.005,0.727,0.326,0.577,0.542,��,8.6,�L
2023/06/06,22:30,0.554,0.821,0.498,1.004,0.728,0.326,0.576,0.542,��,9.7,�L
2023/06/06,22:40,0.554,0.823,0.498,1.003,0.727,0.327,0.576,0.543,��,10.2,�L
2023/06/06,22:50,0.554,0.823,0.498,1.005,0.727,0.325,0.576,0.542,��,9.2,�L
2023/06/06,23:00,0.555,0.821,0.501,1.006,0.730,0.328,0.578,0.543,��,9.1,�L
2023/06/06,23:10,0.557,0.823,0.503,1.007,0.728,0.327,0.577,0.543,��,7.9,�L
2023/06/06,23:20,0.558,0.822,0.501,1.008,0.729,0.330,0.577,0.543,��,9.2,�L
2023/06/06,23:30,0.557,0.823,0.502,1.009,0.729,0.330,0.576,0.542,��,8.8,�L
2023/06/06,23:40,0.557,0.823,0.501,1.006,0.728,0.332,0.576,0.543,��,9.0,�L
2023/06/06,23:50,0.557,0.821,0.500,1.006,0.728,0.329,0.576,0.543,��,8.8,�L
